Brenham, TX

4:54 PM CST on February 27, 2017 (GMT -0600)
Brenham

Weather History for K11R - January, 2013

Change the Weather History Date:

Friday, January 25, 2013

  Actual Average (KCLL) Record (KCLL)
Temperature  
Mean Temperature 71 °F -  
Max Temperature 80 °F 61 °F 85 °F (1971)
Min Temperature 62 °F 40 °F 20 °F (1940)
Cooling Degree Days 6    
Growing Degree Days 21 (Base 50)    
Moisture  
Dew Point 61 °F    
Average Humidity 73    
Maximum Humidity 94    
Minimum Humidity 48    
Precipitation  
Precipitation 0.00 in - - ()
Sea Level Pressure  
Sea Level Pressure 30.12 in    
Wind  
Wind Speed 10 mph (South)    
Max Wind Speed 18 mph    
Max Gust Speed 24 mph    
Visibility 10 miles    
Events      
Averages and records for this station are not official NWS values.
T = Trace of Precipitation, MM = Missing Value Source: NWS Daily Summary

Daily Weather History Graph

Daily Weather History Graph

Search for Another Location

Airport or City:

Trip Planner

Search our weather history database for the weather conditions in past years. The results will help you decide how hot, cold, wet, or windy it might be!

Date:

Astronomy

Jan. 25, 2013 Rise Set
Actual Time 7:19 AM CST 5:56 PM CST
Civil Twilight 6:54 AM CST 6:22 PM CST
Nautical Twilight 6:25 AM CST 6:50 PM CST
Astronomical Twilight 5:56 AM CST 7:19 PM CST
Moon 4:54 PM CST (1/25) 5:59 AM CST (1/25)
Length of Visible Light 11h 27m
Length of Day
10h 37m
Waxing Gibbous, 98% of the Moon is Illuminated
Jan 25
Waxing Gibbous
Jan 26
Full
Feb 3
Last Quarter
Feb 10
New
Feb 17
First Quarter

Hourly Weather History & Observations

Time (CST) Temp. Heat Index Dew Point Humidity Pressure Visibility Wind Dir Wind Speed Gust Speed Precip Events Conditions
12:15 AM 66.2 °F - 60.8 °F 83% 30.16 in 10.0 mi South 8.1 mph - N/A   Overcast
12:35 AM 66.2 °F - 62.6 °F 88% 30.16 in 10.0 mi South 12.7 mph - N/A   Overcast
12:55 AM 68.0 °F - 60.8 °F 78% 30.15 in 10.0 mi South 11.5 mph - N/A   Overcast
1:15 AM 68.0 °F - 62.6 °F 83% 30.15 in 10.0 mi South 11.5 mph 17.3 mph N/A   Overcast
1:35 AM 68.0 °F - 62.6 °F 83% 30.14 in 10.0 mi South 12.7 mph 19.6 mph N/A   Overcast
1:55 AM 68.0 °F - 62.6 °F 83% 30.13 in 10.0 mi South 11.5 mph 18.4 mph N/A   Overcast
2:15 AM 68.0 °F - 62.6 °F 83% 30.13 in 10.0 mi SSW 12.7 mph - N/A   Overcast
2:35 AM 68.0 °F - 62.6 °F 83% 30.12 in 10.0 mi South 11.5 mph 17.3 mph N/A   Overcast
2:55 AM 68.0 °F - 62.6 °F 83% 30.12 in 10.0 mi SSW 11.5 mph 20.7 mph N/A   Overcast
3:15 AM 68.0 °F - 60.8 °F 78% 30.12 in 10.0 mi South 11.5 mph 16.1 mph N/A   Overcast
3:35 AM 68.0 °F - 60.8 °F 78% 30.12 in 10.0 mi SSW 11.5 mph - N/A   Overcast
3:55 AM 66.2 °F - 60.8 °F 83% 30.12 in 10.0 mi SSW 10.4 mph - N/A   Mostly Cloudy
4:15 AM 66.2 °F - 60.8 °F 83% - 10.0 mi SSW 13.8 mph 20.7 mph N/A   Mostly Cloudy
4:35 AM 66.2 °F - 60.8 °F 83% 30.12 in 10.0 mi SSW 10.4 mph - N/A   Overcast
4:55 AM 66.2 °F - 60.8 °F 83% 30.12 in 10.0 mi SSW 11.5 mph 18.4 mph N/A   Overcast
5:15 AM 64.4 °F - 60.8 °F 88% 30.12 in 10.0 mi SSW 12.7 mph 21.9 mph N/A   Mostly Cloudy
5:35 AM 64.4 °F - 60.8 °F 88% 30.12 in 10.0 mi SSW 9.2 mph - N/A   Overcast
5:55 AM 64.4 °F - 60.8 °F 88% 30.12 in 10.0 mi SSW 10.4 mph - N/A   Overcast
6:15 AM 64.4 °F - 59.0 °F 83% 30.13 in 10.0 mi SSW 5.8 mph - N/A   Overcast
6:35 AM 62.6 °F - 59.0 °F 88% 30.13 in 10.0 mi SSW 6.9 mph - N/A   Scattered Clouds
6:55 AM 62.6 °F - 59.0 °F 88% 30.13 in 10.0 mi South 6.9 mph - N/A   Clear
7:15 AM 62.6 °F - 59.0 °F 88% 30.14 in 10.0 mi South 3.5 mph - N/A   Mostly Cloudy
7:35 AM 62.6 °F - 59.0 °F 88% 30.15 in 10.0 mi South 3.5 mph - N/A   Overcast
7:55 AM 62.6 °F - 60.8 °F 94% 30.15 in 10.0 mi South 5.8 mph - N/A   Overcast
8:15 AM 64.4 °F - 60.8 °F 88% 30.15 in 10.0 mi South 6.9 mph - N/A   Overcast
8:35 AM 64.4 °F - 60.8 °F 88% 30.16 in 10.0 mi South 9.2 mph - N/A   Overcast
8:55 AM 64.4 °F - 60.8 °F 88% 30.16 in 10.0 mi South 11.5 mph - N/A   Overcast
9:15 AM 66.2 °F - 60.8 °F 83% 30.17 in 10.0 mi SSW 10.4 mph - N/A   Overcast
9:35 AM 68.0 °F - 60.8 °F 78% 30.17 in 10.0 mi South 12.7 mph 18.4 mph N/A   Overcast
9:55 AM 68.0 °F - 60.8 °F 78% 30.18 in 10.0 mi SSW 18.4 mph 24.2 mph N/A   Overcast
10:15 AM 69.8 °F - 60.8 °F 73% 30.19 in 10.0 mi SW 11.5 mph 20.7 mph N/A   Mostly Cloudy
10:35 AM 69.8 °F - 60.8 °F 73% 30.18 in 10.0 mi SW 12.7 mph 18.4 mph N/A   Scattered Clouds
10:55 AM 71.6 °F - 60.8 °F 69% 30.17 in 10.0 mi SSW 11.5 mph - N/A   Clear
11:15 AM 73.4 °F - 60.8 °F 65% 30.16 in 10.0 mi SW 12.7 mph 21.9 mph N/A   Clear
11:35 AM 73.4 °F - 60.8 °F 65% 30.16 in 10.0 mi South 17.3 mph 21.9 mph N/A   Scattered Clouds
11:55 AM 73.4 °F - 60.8 °F 65% 30.16 in 10.0 mi SSW 11.5 mph - N/A   Mostly Cloudy
12:15 PM 75.2 °F - 60.8 °F 61% 30.14 in 10.0 mi SSW 12.7 mph 19.6 mph N/A   Scattered Clouds
12:35 PM 77.0 °F - 60.8 °F 57% 30.14 in 10.0 mi SSW 11.5 mph - N/A   Scattered Clouds
12:55 PM 77.0 °F - 60.8 °F 57% 30.13 in 10.0 mi SW 9.2 mph - N/A   Mostly Cloudy
1:15 PM 77.0 °F - 60.8 °F 57% 30.12 in 10.0 mi South 9.2 mph - N/A   Mostly Cloudy
1:35 PM 78.8 °F - 60.8 °F 54% 30.11 in 10.0 mi South 8.1 mph 17.3 mph N/A   Scattered Clouds
1:55 PM 78.8 °F - 60.8 °F 54% 30.10 in 10.0 mi South 9.2 mph - N/A   Mostly Cloudy
2:15 PM 78.8 °F - 60.8 °F 54% 30.09 in 10.0 mi South 9.2 mph - N/A   Scattered Clouds
2:35 PM 78.8 °F - 60.8 °F 54% 30.08 in 10.0 mi SSW 8.1 mph - N/A   Scattered Clouds
2:55 PM 80.6 °F 81.5 °F 60.8 °F 51% 30.07 in 10.0 mi South 9.2 mph 16.1 mph N/A   Clear
3:15 PM 80.6 °F 81.5 °F 60.8 °F 51% 30.07 in 10.0 mi South 9.2 mph - N/A   Clear
3:35 PM 80.6 °F 81.1 °F 59.0 °F 48% 30.07 in 10.0 mi South 12.7 mph - N/A   Scattered Clouds
3:55 PM 80.6 °F 81.1 °F 59.0 °F 48% 30.05 in 10.0 mi South 12.7 mph 18.4 mph N/A   Clear
4:15 PM 80.6 °F 81.1 °F 59.0 °F 48% 30.06 in 10.0 mi South 10.4 mph - N/A   Clear
4:35 PM 80.6 °F 81.1 °F 59.0 °F 48% 30.05 in 10.0 mi South 11.5 mph 16.1 mph N/A   Clear
4:55 PM 78.8 °F - 59.0 °F 51% 30.05 in 10.0 mi South 9.2 mph 18.4 mph N/A   Clear
5:15 PM 78.8 °F - 60.8 °F 54% 30.05 in 10.0 mi SSE 9.2 mph - N/A   Clear
5:35 PM 77.0 °F - 60.8 °F 57% 30.06 in 10.0 mi South 9.2 mph - N/A   Clear
5:55 PM 77.0 °F - 60.8 °F 57% 30.07 in 10.0 mi South 5.8 mph - N/A   Clear
6:15 PM 75.2 °F - 60.8 °F 61% 30.07 in 10.0 mi SSE 5.8 mph - N/A   Clear
6:35 PM 73.4 °F - 60.8 °F 65% 30.08 in 10.0 mi SSE 5.8 mph - N/A   Clear
6:55 PM 73.4 °F - 60.8 °F 65% 30.08 in 10.0 mi SSE 5.8 mph - N/A   Clear
7:15 PM 71.6 °F - 60.8 °F 69% 30.09 in 10.0 mi SSE 6.9 mph - N/A   Clear
7:35 PM 71.6 °F - 62.6 °F 73% 30.09 in 10.0 mi South 8.1 mph - N/A   Clear
7:55 PM 71.6 °F - 62.6 °F 73% 30.10 in 10.0 mi SSE 8.1 mph - N/A   Clear
8:15 PM 69.8 °F - 62.6 °F 78% 30.10 in 10.0 mi SSE 5.8 mph - N/A   Clear
8:35 PM 69.8 °F - 62.6 °F 78% 30.11 in 10.0 mi South 6.9 mph - N/A   Clear
8:55 PM 69.8 °F - 62.6 °F 78% 30.11 in 10.0 mi South 6.9 mph - N/A   Clear
9:15 PM 68.0 °F - 62.6 °F 83% 30.12 in 10.0 mi South 5.8 mph - N/A   Clear
9:35 PM 68.0 °F - 62.6 °F 83% 30.13 in 10.0 mi SSE 4.6 mph - N/A   Clear
9:55 PM 68.0 °F - 62.6 °F 83% 30.13 in 10.0 mi South 5.8 mph - N/A   Scattered Clouds
10:15 PM 68.0 °F - 62.6 °F 83% 30.13 in 10.0 mi SSE 5.8 mph - N/A   Scattered Clouds
10:35 PM 68.0 °F - 62.6 °F 83% 30.14 in 10.0 mi South 5.8 mph - N/A   Scattered Clouds
10:55 PM 68.0 °F - 62.6 °F 83% 30.14 in 10.0 mi South 4.6 mph - N/A   Scattered Clouds
11:15 PM 68.0 °F - 62.6 °F 83% 30.14 in 10.0 mi Calm Calm - N/A   Mostly Cloudy
11:35 PM 68.0 °F - 62.6 °F 83% 30.15 in 10.0 mi Calm Calm - N/A   Overcast
11:55 PM 68.0 °F - 62.6 °F 83% 30.15 in 10.0 mi Calm Calm - N/A   Overcast